QPF
0.27 0.32 0.46 0.56 0.69 0.73 0.69 0.66 0.61 0.48 0.37 0.31 0.24 0.17 0.12 0.07 0.05 0.05 0.07 0.09 0.11 0.11 0.07 0.02 0.01 0.01 0.01 0.01 0.01 0.01 0.02 0.02 0.02 0.02 0.01 0.01 0.01 0.02 0.01 0.02 0.03 0.03 0.05
0.29 0.36 0.45 0.60 0.70 0.73 0.67 0.57 0.46 0.33 0.26 0.23 0.18 0.13 0.09 0.09 0.11 0.11 0.12 0.13 0.10 0.06 0.03 0.01 0.00 0.00 0.00 0.00 0.00 0.01 0.00 0.00 0.01 0.01 0.01 0.01 0.01 0.01 0.01 0.03 0.04 0.05 0.06
0.42 0.38 0.35 0.38 0.44 0.51 0.54 0.41 0.27 0.18 0.16 0.15 0.12 0.09 0.09 0.08 0.09 0.16 0.18 0.14 0.09 0.06 0.02 0.01 0.01 0.01 0.01 0.00 0.00 0.00 0.00 0.00 0.00 0.01 0.01 0.01 0.01 0.00 0.00 0.01 0.02 0.03 0.04
0.41 0.36 0.30 0.26 0.26 0.28 0.26 0.25 0.18 0.14 0.12 0.11 0.10 0.09 0.08 0.09 0.08 0.09 0.11 0.10 0.07 0.05 0.03 0.02 0.02 0.02 0.01 0.01 0.00 0.00 0.00 0.00 0.00 0.00 0.01 0.01 0.01 0.01 0.00 0.00 0.01 0.02 0.02
0.25 0.24 0.20 0.15 0.16 0.17 0.15 0.16 0.15 0.14 0.14 0.12 0.10 0.08 0.09 0.08 0.06 0.06 0.08 0.10 0.08 0.05 0.04 0.05 0.05 0.03 0.03 0.03 0.02 0.01 0.00 0.00 0.00 0.00 0.00 0.01 0.01 0.01 0.01 0.00 0.01 0.01 0.01
0.19 0.16 0.12 0.10 0.11 0.16 0.16 0.16 0.17 0.17 0.15 0.13 0.11 0.10 0.08 0.07 0.06 0.06 0.05 0.06 0.06 0.06 0.06 0.07 0.07 0.06 0.04 0.04 0.03 0.03 0.01 0.01 0.00 0.00 0.00 0.00 0.01 0.01 0.01 0.01 0.01 0.01 0.01
0.15 0.12 0.10 0.09 0.09 0.15 0.15 0.12 0.13 0.14 0.15 0.14 0.13 0.12 0.10 0.10 0.09 0.07 0.06 0.06 0.06 0.06 0.07 0.08 0.09 0.11 0.09 0.08 0.07 0.04 0.02 0.01 0.01 0.01 0.00 0.00 0.00 0.01 0.01 0.01 0.01 0.01 0.01
0.13 0.09 0.08 0.07 0.07 0.10 0.10 0.08 0.08 0.10 0.12 0.12 0.11 0.09 0.07 0.06 0.06 0.06 0.07 0.07 0.07 0.07 0.07 0.10 0.11 0.11 0.08 0.07 0.06 0.05 0.04 0.02 0.01 0.01 0.00 0.00 0.00 0.00 0.01 0.01 0.01 0.01 0.01
0.09 0.07 0.05 0.04 0.04 0.04 0.04 0.04 0.04 0.05 0.06 0.06 0.07 0.06 0.05 0.04 0.03 0.04 0.04 0.04 0.04 0.04 0.06 0.08 0.10 0.09 0.07 0.05 0.05 0.06 0.05 0.03 0.01 0.00 0.00 0.00 0.00 0.00 0.00 0.01 0.01 0.02 0.02
0.05 0.03 0.01 0.01 0.01 0.01 0.01 0.01 0.01 0.02 0.02 0.03 0.02 0.02 0.02 0.01 0.01 0.01 0.01 0.02 0.02 0.02 0.03 0.04 0.05 0.05 0.06 0.05 0.04 0.03 0.03 0.02 0.01 0.01 0.01 0.00 0.00 0.00 0.00 0.00 0.01 0.01 0.02
0.02 0.01 0.01 0.00 0.00 0.00 0.01 0.00 0.00 0.01 0.01 0.01 0.01 0.01 0.00 0.00 0.00 0.00 0.00 0.00 0.01 0.01 0.02 0.02 0.03 0.04 0.06 0.07 0.05 0.03 0.03 0.02 0.02 0.01 0.01 0.00 0.00 0.00 0.00 0.00 0.01 0.01 0.02
0.01 0.01 0.00 0.00 0.00 0.00 0.00 0.00 0.00 0.00 0.00 0.00 0.00 0.00 0.00 0.00 0.00 0.00 0.00 0.00 0.00 0.00 0.01 0.01 0.02 0.03 0.04 0.06 0.06 0.05 0.04 0.03 0.02 0.02 0.02 0.01 0.01 0.00 0.01 0.01 0.01 0.01 0.02
0.01 0.01 0.00 0.01 0.00 0.00 0.00 0.00 0.00 0.00 0.00 0.00 0.00 0.00 0.00 0.00 0.00 0.00 0.00 0.00 0.00 0.00 0.00 0.01 0.01 0.02 0.03 0.04 0.04 0.06 0.06 0.05 0.03 0.02 0.02 0.01 0.01 0.01 0.01 0.01 0.02 0.03 0.04
0.01 0.00 0.00 0.00 0.00 0.00 0.00 0.00 0.00 0.00 0.00 0.00 0.00 0.00 0.00 0.00 0.00 0.00 0.00 0.01 0.01 0.01 0.01 0.01 0.01 0.01 0.02 0.03 0.03 0.04 0.05 0.05 0.05 0.04 0.03 0.02 0.01 0.01 0.01 0.01 0.02 0.04 0.04
0.00 0.00 0.00 0.00 0.00 0.00 0.00 0.00 0.00 0.00 0.00 0.00 0.00 0.00 0.00 0.00 0.00 0.00 0.00 0.01 0.01 0.01 0.01 0.01 0.01 0.01 0.02 0.02 0.03 0.04 0.04 0.05 0.05 0.05 0.03 0.02 0.02 0.01 0.01 0.02 0.03 0.03 0.03
0.00 0.00 0.00 0.00 0.00 0.00 0.00 0.00 0.00 0.00 0.00 0.00 0.00 0.00 0.00 0.00 0.00 0.00 0.00 0.01 0.01 0.01 0.01 0.01 0.00 0.01 0.01 0.02 0.02 0.04 0.04 0.05 0.05 0.05 0.04 0.03 0.02 0.01 0.02 0.02 0.02 0.02 0.02
0.00 0.00 0.00 0.00 0.00 0.00 0.00 0.00 0.00 0.00 0.00 0.00 0.00 0.00 0.00 0.00 0.00 0.00 0.01 0.01 0.01 0.01 0.01 0.01 0.01 0.01 0.01 0.02 0.02 0.03 0.04 0.05 0.05 0.05 0.04 0.03 0.02 0.02 0.02 0.02 0.04 0.03 0.03
0.00 0.00 0.00 0.00 0.00 0.00 0.00 0.00 0.00 0.00 0.00 0.00 0.01 0.01 0.01 0.01 0.00 0.01 0.01 0.01 0.01 0.01 0.01 0.01 0.01 0.01 0.01 0.02 0.03 0.04 0.05 0.06 0.08 0.07 0.06 0.04 0.03 0.02 0.02 0.02 0.02 0.03 0.03
0.00 0.00 0.00 0.00 0.00 0.00 0.00 0.00 0.00 0.00 0.01 0.01 0.01 0.01 0.01 0.01 0.01 0.01 0.01 0.01 0.01 0.01 0.01 0.02 0.01 0.01 0.02 0.02 0.02 0.03 0.05 0.08 0.12 0.13 0.09 0.05 0.04 0.04 0.03 0.02 0.02 0.02 0.03
0.00 0.00 0.00 0.00 0.00 0.00 0.00 0.01 0.01 0.01 0.01 0.01 0.01 0.01 0.01 0.01 0.01 0.01 0.01 0.01 0.01 0.01 0.01 0.02 0.02 0.02 0.02 0.03 0.03 0.04 0.05 0.08 0.11 0.16 0.17 0.09 0.04 0.04 0.04 0.03 0.02 0.02 0.03
0.00 0.00 0.00 0.00 0.00 0.00 0.01 0.02 0.02 0.02 0.01 0.01 0.01 0.01 0.02 0.02 0.01 0.01 0.01 0.01 0.01 0.01 0.01 0.01 0.02 0.02 0.02 0.04 0.04 0.05 0.07 0.08 0.12 0.15 0.18 0.14 0.09 0.05 0.04 0.04 0.03 0.03 0.03
0.00 0.00 0.00 0.00 0.00 0.01 0.02 0.02 0.02 0.02 0.02 0.02 0.02 0.02 0.02 0.02 0.01 0.02 0.02 0.02 0.01 0.01 0.01 0.02 0.02 0.02 0.03 0.04 0.05 0.04 0.06 0.10 0.12 0.18 0.20 0.16 0.11 0.08 0.06 0.05 0.05 0.04 0.03
0.00 0.00 0.01 0.01 0.01 0.02 0.03 0.03 0.03 0.02 0.03 0.02 0.02 0.01 0.02 0.02 0.02 0.02 0.02 0.02 0.02 0.02 0.02 0.02 0.03 0.04 0.07 0.07 0.07 0.05 0.06 0.10 0.14 0.18 0.26 0.25 0.13 0.07 0.06 0.07 0.06 0.04 0.03
0.00 0.01 0.02 0.02 0.03 0.03 0.03 0.03 0.03 0.03 0.03 0.02 0.02 0.02 0.02 0.01 0.02 0.02 0.02 0.02 0.02 0.02 0.02 0.02 0.02 0.05 0.09 0.09 0.07 0.06 0.07 0.11 0.15 0.19 0.24 0.28 0.21 0.10 0.07 0.08 0.07 0.05 0.04
0.01 0.02 0.03 0.05 0.04 0.04 0.04 0.04 0.04 0.04 0.03 0.03 0.02 0.02 0.02 0.02 0.02 0.02 0.02 0.02 0.02 0.01 0.01 0.01 0.01 0.03 0.06 0.08 0.06 0.06 0.08 0.11 0.17 0.21 0.24 0.24 0.23 0.14 0.07 0.06 0.06 0.05 0.05
0.02 0.04 0.05 0.06 0.05 0.06 0.05 0.04 0.04 0.04 0.05 0.04 0.03 0.03 0.03 0.02 0.02 0.02 0.02 0.01 0.01 0.01 0.00 0.01 0.01 0.02 0.04 0.05 0.04 0.06 0.08 0.11 0.20 0.22 0.23 0.25 0.22 0.15 0.09 0.06 0.05 0.05 0.05
MSLP
1009.80 1009.74 1009.60 1009.35 1009.00 1008.57 1008.12 1007.68 1007.31 1007.07 1006.99 1007.07 1007.29 1007.62 1008.01 1008.40 1008.75 1009.02 1009.21 1009.33 1009.42 1009.49 1009.59 1009.75 1009.98 1010.25 1010.56 1010.87 1011.16 1011.39 1011.56 1011.65 1011.66 1011.61 1011.50 1011.33 1011.13 1010.90 1010.64 1010.38 1010.13 1009.91 1009.74
1010.64 1010.57 1010.42 1010.19 1009.85 1009.44 1008.98 1008.53 1008.14 1007.87 1007.74 1007.77 1007.93 1008.19 1008.49 1008.80 1009.05 1009.24 1009.35 1009.40 1009.42 1009.44 1009.51 1009.64 1009.83 1010.09 1010.38 1010.69 1010.99 1011.25 1011.46 1011.61 1011.69 1011.71 1011.67 1011.57 1011.42 1011.20 1010.93 1010.63 1010.31 1009.99 1009.71
1011.12 1011.05 1010.95 1010.77 1010.52 1010.18 1009.79 1009.39 1009.03 1008.77 1008.63 1008.62 1008.73 1008.91 1009.13 1009.34 1009.50 1009.59 1009.61 1009.58 1009.52 1009.47 1009.47 1009.53 1009.66 1009.87 1010.12 1010.40 1010.70 1010.98 1011.23 1011.45 1011.62 1011.74 1011.80 1011.79 1011.71 1011.55 1011.30 1010.98 1010.61 1010.21 1009.82
1011.26 1011.20 1011.16 1011.08 1010.93 1010.71 1010.44 1010.13 1009.85 1009.63 1009.50 1009.48 1009.54 1009.66 1009.81 1009.94 1010.02 1010.02 1009.95 1009.84 1009.69 1009.56 1009.47 1009.44 1009.49 1009.61 1009.80 1010.04 1010.30 1010.59 1010.88 1011.16 1011.42 1011.65 1011.82 1011.92 1011.93 1011.84 1011.63 1011.32 1010.93 1010.48 1010.00
1011.14 1011.09 1011.11 1011.13 1011.11 1011.03 1010.88 1010.69 1010.49 1010.33 1010.23 1010.21 1010.25 1010.33 1010.43 1010.50 1010.51 1010.45 1010.31 1010.12 1009.90 1009.69 1009.50 1009.38 1009.33 1009.35 1009.46 1009.63 1009.86 1010.13 1010.44 1010.76 1011.09 1011.41 1011.68 1011.88 1011.98 1011.97 1011.83 1011.56 1011.17 1010.70 1010.17
1010.89 1010.85 1010.92 1011.02 1011.11 1011.15 1011.11 1011.03 1010.91 1010.81 1010.74 1010.73 1010.76 1010.83 1010.89 1010.93 1010.90 1010.80 1010.62 1010.38 1010.10 1009.82 1009.56 1009.34 1009.20 1009.13 1009.15 1009.24 1009.41 1009.64 1009.94 1010.28 1010.64 1011.01 1011.34 1011.62 1011.80 1011.87 1011.80 1011.58 1011.24 1010.78 1010.24
1010.64 1010.60 1010.70 1010.86 1011.02 1011.13 1011.18 1011.16 1011.11 1011.05 1011.01 1011.01 1011.04 1011.10 1011.15 1011.17 1011.14 1011.02 1010.83 1010.57 1010.26 1009.94 1009.62 1009.34 1009.12 1008.97 1008.89 1008.91 1009.00 1009.18 1009.42 1009.73 1010.08 1010.45 1010.81 1011.12 1011.36 1011.49 1011.49 1011.34 1011.07 1010.67 1010.17
1010.51 1010.46 1010.56 1010.74 1010.92 1011.06 1011.14 1011.16 1011.13 1011.09 1011.06 1011.06 1011.10 1011.15 1011.20 1011.23 1011.19 1011.09 1010.91 1010.66 1010.35 1010.02 1009.68 1009.36 1009.08 1008.87 1008.72 1008.65 1008.66 1008.75 1008.92 1009.15 1009.44 1009.76 1010.09 1010.40 1010.66 1010.83 1010.89 1010.83 1010.65 1010.34 1009.93
1010.57 1010.50 1010.57 1010.72 1010.88 1011.00 1011.06 1011.06 1011.03 1010.98 1010.94 1010.94 1010.96 1011.01 1011.07 1011.10 1011.08 1011.00 1010.84 1010.62 1010.34 1010.02 1009.69 1009.37 1009.07 1008.81 1008.61 1008.46 1008.38 1008.37 1008.43 1008.56 1008.75 1008.98 1009.24 1009.51 1009.75 1009.95 1010.07 1010.10 1010.02 1009.83 1009.54
1010.84 1010.73 1010.75 1010.83 1010.92 1010.97 1010.97 1010.93 1010.86 1010.78 1010.72 1010.69 1010.70 1010.74 1010.78 1010.81 1010.81 1010.75 1010.63 1010.45 1010.21 1009.93 1009.64 1009.33 1009.04 1008.76 1008.52 1008.31 1008.14 1008.03 1007.97 1007.97 1008.03 1008.15 1008.32 1008.52 1008.73 1008.94 1009.11 1009.22 1009.26 1009.20 1009.04
1011.26 1011.11 1011.04 1011.03 1011.01 1010.96 1010.88 1010.77 1010.64 1010.52 1010.42 1010.36 1010.34 1010.35 1010.38 1010.40 1010.40 1010.36 1010.26 1010.12 1009.94 1009.72 1009.47 1009.21 1008.93 1008.66 1008.39 1008.14 1007.90 1007.68 1007.51 1007.39 1007.32 1007.33 1007.40 1007.53 1007.70 1007.91 1008.12 1008.31 1008.44 1008.50 1008.47
1011.73 1011.51 1011.35 1011.21 1011.08 1010.93 1010.75 1010.56 1010.38 1010.21 1010.07 1009.98 1009.92 1009.90 1009.90 1009.89 1009.88 1009.84 1009.76 1009.66 1009.52 1009.36 1009.16 1008.95 1008.71 1008.46 1008.18 1007.89 1007.59 1007.30 1007.04 1006.81 1006.65 1006.55 1006.54 1006.61 1006.76 1006.96 1007.20 1007.44 1007.65 1007.80 1007.87
1012.14 1011.83 1011.56 1011.30 1011.04 1010.78 1010.52 1010.27 1010.03 1009.83 1009.66 1009.53 1009.44 1009.38 1009.33 1009.30 1009.25 1009.20 1009.14 1009.06 1008.96 1008.84 1008.71 1008.54 1008.34 1008.11 1007.84 1007.53 1007.20 1006.86 1006.53 1006.24 1006.01 1005.85 1005.79 1005.82 1005.95 1006.15 1006.40 1006.67 1006.92 1007.12 1007.23
1012.36 1011.96 1011.57 1011.19 1010.82 1010.47 1010.14 1009.84 1009.57 1009.34 1009.16 1009.00 1008.88 1008.78 1008.69 1008.61 1008.54 1008.47 1008.40 1008.34 1008.27 1008.20 1008.11 1007.99 1007.82 1007.62 1007.36 1007.05 1006.71 1006.34 1005.99 1005.67 1005.41 1005.24 1005.16 1005.19 1005.31 1005.51 1005.76 1006.02 1006.26 1006.45 1006.55
1012.34 1011.83 1011.33 1010.84 1010.39 1009.96 1009.59 1009.26 1008.98 1008.75 1008.55 1008.38 1008.24 1008.10 1007.97 1007.86 1007.75 1007.66 1007.59 1007.54 1007.50 1007.45 1007.40 1007.31 1007.18 1006.99 1006.75 1006.45 1006.11 1005.75 1005.40 1005.10 1004.86 1004.70 1004.65 1004.69 1004.82 1005.01 1005.24 1005.46 1005.65 1005.77 1005.81
1012.05 1011.45 1010.85 1010.28 1009.75 1009.28 1008.88 1008.55 1008.28 1008.05 1007.85 1007.68 1007.51 1007.35 1007.19 1007.05 1006.92 1006.82 1006.74 1006.70 1006.68 1006.66 1006.63 1006.57 1006.46 1006.29 1006.05 1005.77 1005.44 1005.11 1004.79 1004.53 1004.33 1004.23 1004.22 1004.29 1004.43 1004.61 1004.80 1004.96 1005.05 1005.07 1005.01
1011.56 1010.87 1010.19 1009.56 1008.99 1008.50 1008.09 1007.76 1007.50 1007.28 1007.09 1006.91 1006.73 1006.55 1006.37 1006.21 1006.07 1005.97 1005.90 1005.87 1005.87 1005.88 1005.87 1005.82 1005.72 1005.55 1005.33 1005.05 1004.74 1004.44 1004.17 1003.96 1003.83 1003.79 1003.83 1003.94 1004.10 1004.26 1004.40 1004.47 1004.46 1004.36 1004.16
1010.94 1010.19 1009.46 1008.79 1008.20 1007.69 1007.29 1006.97 1006.71 1006.50 1006.31 1006.12 1005.93 1005.74 1005.55 1005.38 1005.24 1005.15 1005.10 1005.10 1005.12 1005.14 1005.15 1005.11 1005.01 1004.84 1004.61 1004.34 1004.06 1003.78 1003.56 1003.41 1003.34 1003.36 1003.46 1003.61 1003.77 1003.91 1003.99 1003.98 1003.87 1003.65 1003.34
1010.32 1009.53 1008.78 1008.09 1007.48 1006.98 1006.57 1006.24 1005.98 1005.77 1005.56 1005.36 1005.16 1004.96 1004.76 1004.60 1004.48 1004.40 1004.38 1004.40 1004.45 1004.49 1004.51 1004.47 1004.36 1004.19 1003.96 1003.69 1003.41 1003.17 1002.98 1002.88 1002.87 1002.94 1003.08 1003.26 1003.43 1003.55 1003.58 1003.51 1003.31 1003.01 1002.61
1009.79 1008.99 1008.22 1007.53 1006.92 1006.40 1005.98 1005.64 1005.37 1005.12 1004.89 1004.67 1004.44 1004.23 1004.04 1003.88 1003.78 1003.73 1003.74 1003.79 1003.86 1003.92 1003.94 1003.90 1003.79 1003.61 1003.37 1003.10 1002.83 1002.61 1002.45 1002.38 1002.41 1002.53 1002.70 1002.89 1003.07 1003.17 1003.18 1003.07 1002.84 1002.50 1002.08
1009.41 1008.61 1007.84 1007.14 1006.52 1005.99 1005.55 1005.18 1004.86 1004.57 1004.30 1004.05 1003.80 1003.57 1003.37 1003.23 1003.15 1003.13 1003.17 1003.24 1003.33 1003.41 1003.44 1003.40 1003.28 1003.09 1002.85 1002.58 1002.33 1002.12 1001.98 1001.95 1002.00 1002.14 1002.33 1002.54 1002.71 1002.82 1002.83 1002.72 1002.50 1002.18 1001.80
1009.17 1008.38 1007.62 1006.91 1006.28 1005.72 1005.24 1004.82 1004.44 1004.10 1003.79 1003.49 1003.21 1002.97 1002.77 1002.64 1002.57 1002.58 1002.64 1002.74 1002.84 1002.93 1002.96 1002.92 1002.81 1002.63 1002.39 1002.14 1001.90 1001.71 1001.60 1001.59 1001.66 1001.82 1002.02 1002.23 1002.42 1002.54 1002.56 1002.49 1002.32 1002.08 1001.79
1009.04 1008.26 1007.50 1006.78 1006.12 1005.53 1004.99 1004.51 1004.08 1003.68 1003.31 1002.96 1002.66 1002.40 1002.21 1002.08 1002.03 1002.05 1002.13 1002.24 1002.36 1002.45 1002.49 1002.47 1002.37 1002.20 1001.99 1001.77 1001.56 1001.41 1001.33 1001.33 1001.42 1001.59 1001.79 1002.01 1002.21 1002.35 1002.42 1002.41 1002.32 1002.19 1002.04
1008.95 1008.18 1007.41 1006.68 1005.98 1005.34 1004.75 1004.20 1003.71 1003.25 1002.83 1002.45 1002.13 1001.86 1001.67 1001.55 1001.51 1001.54 1001.63 1001.75 1001.87 1001.97 1002.02 1002.02 1001.94 1001.81 1001.65 1001.48 1001.32 1001.21 1001.17 1001.21 1001.32 1001.49 1001.70 1001.92 1002.12 1002.29 1002.40 1002.47 1002.48 1002.47 1002.46
1008.87 1008.09 1007.30 1006.54 1005.80 1005.11 1004.46 1003.85 1003.30 1002.79 1002.33 1001.93 1001.59 1001.33 1001.14 1001.03 1001.00 1001.04 1001.13 1001.25 1001.38 1001.49 1001.57 1001.59 1001.55 1001.48 1001.38 1001.28 1001.19 1001.14 1001.16 1001.23 1001.36 1001.54 1001.75 1001.97 1002.18 1002.37 1002.52 1002.65 1002.75 1002.86 1002.98
1008.75 1007.95 1007.14 1006.34 1005.56 1004.81 1004.10 1003.45 1002.84 1002.30 1001.82 1001.40 1001.06 1000.80 1000.63 1000.53 1000.51 1000.56 1000.66 1000.79 1000.92 1001.05 1001.15 1001.21 1001.23 1001.23 1001.21 1001.19 1001.19 1001.22 1001.29 1001.40 1001.56 1001.75 1001.95 1002.16 1002.36 1002.55 1002.73 1002.90 1003.08 1003.27 1003.49
Thickness
5780 5782 5784 5782 5776 5770 5761 5761 5759 5759 5758 5757 5755 5751 5749 5749 5748 5748 5747 5743 5741 5738 5736 5734 5732 5732 5730 5730 5729 5728 5727 5727 5728 5726 5726 5730 5734 5735 5736 5737 5736 5735 5735
5772 5771 5771 5770 5766 5760 5752 5750 5750 5750 5750 5752 5751 5748 5745 5743 5742 5741 5740 5739 5736 5733 5732 5729 5727 5727 5726 5725 5725 5724 5721 5721 5723 5720 5717 5715 5720 5727 5733 5734 5733 5733 5733
5761 5761 5760 5758 5756 5751 5746 5743 5743 5742 5743 5744 5742 5740 5736 5733 5732 5731 5730 5732 5731 5729 5727 5725 5724 5723 5722 5721 5720 5720 5717 5715 5716 5717 5713 5708 5706 5712 5722 5727 5729 5728 5728
5748 5748 5748 5746 5744 5742 5740 5736 5734 5732 5731 5732 5730 5727 5723 5720 5720 5721 5722 5723 5724 5722 5721 5720 5719 5719 5718 5716 5716 5717 5715 5712 5709 5711 5712 5711 5710 5706 5708 5715 5720 5723 5723
5735 5735 5735 5733 5732 5732 5730 5727 5724 5721 5721 5720 5718 5716 5714 5712 5712 5713 5713 5713 5714 5714 5714 5713 5712 5712 5712 5712 5711 5711 5710 5709 5707 5706 5706 5706 5706 5706 5703 5703 5708 5713 5717
5724 5724 5724 5724 5722 5721 5719 5716 5713 5710 5711 5710 5708 5706 5704 5702 5701 5701 5701 5702 5702 5703 5704 5705 5705 5705 5705 5705 5705 5705 5705 5704 5703 5703 5702 5701 5700 5700 5700 5700 5701 5703 5709
5712 5713 5713 5712 5712 5711 5708 5706 5703 5700 5699 5698 5696 5694 5692 5690 5689 5688 5689 5689 5689 5690 5692 5695 5696 5697 5698 5699 5699 5699 5699 5699 5699 5698 5699 5699 5699 5699 5697 5696 5697 5698 5703
5705 5705 5705 5704 5702 5702 5699 5696 5693 5690 5688 5686 5682 5680 5679 5677 5676 5676 5676 5677 5677 5679 5681 5683 5686 5688 5689 5690 5690 5691 5692 5693 5693 5694 5695 5695 5696 5696 5695 5694 5692 5693 5695
5698 5697 5697 5696 5694 5691 5687 5685 5681 5678 5675 5672 5669 5668 5666 5664 5662 5662 5662 5663 5665 5668 5670 5671 5673 5676 5678 5679 5680 5682 5684 5686 5687 5688 5689 5690 5692 5693 5693 5692 5690 5688 5688
5689 5687 5686 5685 5683 5680 5676 5673 5669 5665 5662 5659 5656 5654 5652 5650 5650 5649 5648 5649 5651 5653 5655 5657 5659 5662 5665 5667 5669 5671 5675 5677 5679 5681 5683 5684 5686 5687 5688 5688 5687 5687 5685
5678 5676 5674 5673 5670 5667 5663 5659 5655 5651 5648 5644 5641 5638 5636 5635 5634 5633 5634 5634 5635 5636 5638 5641 5644 5647 5650 5654 5656 5660 5664 5667 5670 5673 5676 5678 5680 5681 5682 5683 5683 5683 5682
5668 5666 5663 5660 5655 5651 5647 5642 5639 5635 5631 5628 5625 5622 5620 5618 5617 5616 5617 5618 5619 5621 5623 5625 5628 5632 5636 5639 5643 5647 5652 5656 5660 5664 5667 5671 5673 5675 5676 5677 5678 5678 5679
5655 5651 5646 5641 5637 5634 5630 5626 5622 5619 5616 5612 5608 5605 5602 5600 5599 5599 5599 5600 5602 5603 5606 5608 5611 5615 5619 5624 5629 5634 5639 5645 5650 5655 5659 5663 5665 5667 5669 5671 5672 5673 5675
5638 5633 5627 5623 5619 5615 5611 5608 5605 5602 5599 5595 5591 5587 5585 5583 5583 5583 5583 5583 5584 5586 5588 5591 5595 5599 5603 5608 5614 5619 5625 5632 5638 5644 5650 5654 5658 5661 5662 5665 5667 5668 5668
5627 5621 5615 5610 5605 5600 5595 5591 5587 5585 5582 5578 5574 5572 5571 5569 5568 5568 5568 5569 5569 5571 5573 5575 5577 5581 5586 5592 5598 5603 5610 5617 5624 5632 5638 5645 5650 5655 5657 5659 5661 5662 5662
5615 5611 5605 5599 5593 5587 5583 5578 5573 5570 5567 5563 5561 5561 5559 5558 5557 5556 5557 5557 5556 5557 5557 5559 5561 5565 5570 5576 5581 5587 5593 5601 5609 5617 5626 5633 5640 5646 5650 5653 5656 5657 5658
5605 5599 5593 5587 5581 5576 5571 5565 5561 5558 5554 5552 5551 5551 5550 5549 5549 5549 5549 5548 5547 5547 5546 5548 5549 5552 5555 5560 5566 5572 5578 5585 5594 5603 5612 5621 5629 5635 5639 5644 5649 5652 5654
5596 5590 5583 5577 5572 5566 5560 5555 5550 5546 5543 5541 5540 5541 5541 5542 5542 5542 5541 5541 5540 5540 5540 5541 5542 5544 5547 5550 5554 5559 5565 5571 5580 5590 5599 5608 5616 5623 5628 5633 5638 5643 5647
5585 5579 5573 5566 5560 5553 5548 5542 5538 5534 5532 5531 5530 5531 5531 5532 5533 5533 5533 5534 5534 5534 5535 5536 5537 5538 5540 5544 5546 5549 5553 5559 5568 5577 5586 5595 5604 5612 5618 5623 5629 5634 5638
5573 5566 5560 5554 5547 5541 5535 5529 5526 5523 5521 5520 5520 5520 5521 5521 5523 5525 5526 5527 5528 5530 5531 5532 5533 5534 5536 5538 5540 5542 5544 5550 5558 5566 5574 5584 5592 5599 5607 5614 5620 5624 5629
5561 5554 5547 5540 5534 5529 5523 5518 5514 5511 5510 5510 5509 5510 5511 5512 5514 5517 5519 5521 5522 5524 5525 5527 5529 5531 5533 5534 5536 5538 5538 5543 5549 5556 5564 5572 5580 5588 5596 5604 5611 5617 5621
5550 5543 5535 5529 5524 5518 5512 5508 5504 5502 5500 5499 5499 5500 5501 5504 5509 5510 5512 5514 5516 5518 5520 5521 5523 5526 5529 5531 5532 5534 5535 5538 5542 5549 5556 5563 5569 5577 5585 5593 5600 5606 5611
5539 5532 5525 5519 5514 5507 5501 5498 5496 5494 5492 5491 5491 5492 5494 5496 5499 5502 5505 5507 5510 5512 5515 5517 5518 5521 5524 5526 5528 5529 5530 5533 5536 5542 5548 5555 5560 5567 5575 5583 5590 5596 5602
5530 5524 5517 5511 5506 5501 5496 5492 5490 5487 5485 5484 5484 5485 5486 5489 5492 5495 5499 5502 5505 5507 5510 5513 5515 5517 5519 5521 5522 5523 5524 5528 5532 5535 5540 5546 5552 5560 5567 5574 5582 5588 5593
5524 5517 5510 5504 5500 5496 5492 5489 5486 5483 5480 5479 5480 5481 5482 5484 5486 5489 5493 5498 5502 5505 5508 5510 5513 5514 5515 5519 5520 5520 5521 5523 5527 5530 5533 5539 5546 5553 5560 5568 5574 5579 5585
5520 5513 5507 5502 5497 5492 5489 5486 5483 5480 5477 5476 5477 5477 5478 5480 5483 5485 5490 5495 5499 5503 5507 5509 5511 5513 5515 5516 5517 5518 5518 5520 5522 5527 5531 5537 5544 5551 5557 5564 5569 5573 5577